• MPC Preparation (Info)

  • MPEC 2015-V96 : 2015 VS64

    The following Minor Planet Electronic Circular may be linked-to from your own Web pages, but must not otherwise be redistributed electronically.

    A form allowing access to any MPEC is at the bottom of this page.


    Read MPEC 2015-V95 Read MPEC 2015-V97


    M.P.E.C. 2015-V96                                Issued 2015 Nov.  9, 02:30 UT
    
         The Minor Planet Electronic Circulars contain information on unusual
             minor planets and routine data on comets.  They are published
        on behalf of Division F of the International Astronomical Union by the
              Minor Planet Center, Smithsonian Astrophysical Observatory,
                              Cambridge, MA 02138, U.S.A.
    
                 Prepared using the Tamkin Foundation Computer Network
    
                                  MPC@CFA.HARVARD.EDU
                URL https://www.minorplanetcenter.net/    ISSN 1523-6714
    
                                       2015 VS64
    
    Observations:
         K15V64S* C2015 11 06.15605 23 25 00.80 +16 58 07.6          21.8 VqEV096G96
         K15V64S  C2015 11 06.16117 23 25 01.42 +16 58 13.3          21.0 VqEV096G96
         K15V64S  C2015 11 06.16627 23 25 02.03 +16 58 18.9          21.0 VqEV096G96
         K15V64S  C2015 11 06.17137 23 25 02.67 +16 58 23.9          20.5 VqEV096G96
         K15V64S  C2015 11 06.19948 23 25 05.97 +16 58 53.9          22.2 VqEV096G96
         K15V64S  C2015 11 06.20474 23 25 06.75 +16 59 00.2          21.2 VqEV096G96
         K15V64S  C2015 11 06.21000 23 25 07.37 +16 59 06.3          21.0 VqEV096G96
         K15V64S  C2015 11 06.21528 23 25 08.00 +16 59 11.9          21.4 VqEV096G96
         K15V64S  C2015 11 07.13474 23 27 17.85 +17 16 00.7          20.9 VqEV096G96
         K15V64S  C2015 11 07.14008 23 27 18.52 +17 16 07.2          21.2 VqEV096G96
         K15V64S  C2015 11 07.14539 23 27 19.19 +17 16 12.6          21.3 VqEV096G96
         K15V64S  C2015 11 07.15069 23 27 19.83 +17 16 18.3          20.9 VqEV096G96
         K15V64S  C2015 11 07.27317823 27 35.32 +17 18 28.0          21.6 VtEV096H01
         K15V64S  C2015 11 07.27606823 27 35.70 +17 18 31.0          21.4 VtEV096H01
         K15V64S  C2015 11 07.28573523 27 36.98 +17 18 41.1          21.0 VtEV096H01
         K15V64S  C2015 11 07.29597023 27 38.34 +17 18 51.7          21.4 VtEV096H01
         K15V64S  C2015 11 08.08334 23 29 35.29 +17 33 13.2          21.1 VqEV096G96
         K15V64S  C2015 11 08.08860 23 29 35.99 +17 33 19.2          20.8 VqEV096G96
         K15V64S KC2015 11 08.09304 23 29 36.61 +17 33 24.6                oEV096291
         K15V64S KC2015 11 08.09528 23 29 36.91 +17 33 26.9                oEV096291
         K15V64S KC2015 11 08.09752 23 29 37.20 +17 33 29.4          20.8 RoEV096291
         K15V64S  C2015 11 08.09905 23 29 37.40 +17 33 30.7          20.7 VqEV096G96
         K15V64S KC2015 11 09.07459 23 32 02.66 +17 51 05.8          20.5 RoEV096291
         K15V64S KC2015 11 09.07683 23 32 02.95 +17 51 08.1          20.4 RoEV096291
         K15V64S KC2015 11 09.07909 23 32 03.27 +17 51 10.7                oEV096291
    
    Observer details:
    291 LPL/Spacewatch II.  Observers R. S. McMillan, M. T. Read.  1.8-m f/2.7
        reflector + CCD.
    G96 Mt. Lemmon Survey.  Observer D. C. Fuls.  Measurers E. J. Christensen,
        D. C. Fuls, A. R. Gibbs, A. D. Grauer, R. E. Hill, J. A. Johnson,
        R. A. Kowalski, S. M. Larson, R. G. Matheny, F. C. Shelly.  1.5-m
        reflector + CCD.
    H01 Magdalena Ridge Observatory, Socorro.  Observers W. H. Ryan, E. V. Ryan.
        Measurer W. H. Ryan.  2.4-m f/8.9 reflector + CCD.
    
    Orbital elements:
    2015 VS64                                                Earth MOID = 0.1540 AU
    Epoch 2016 Jan. 13.0 TT = JDT 2457400.5                 MPC
    M  29.17270              (2000.0)            P               Q
    n   0.46256780     Peri.   71.60243     +0.75320720     -0.65703177
    a   1.6558428      Node   329.44812     +0.57775631     +0.68366013
    e   0.3147391      Incl.    3.54552     +0.31444643     +0.31767606
    P   2.13           H   22.8           G   0.15           U   6
    Residuals in seconds of arc
    151106 G96  0.1+  0.4+    151107 G96  0.4+  0.6+    151108 291  0.0   0.2+
    151106 G96  0.1+  0.5+    151107 G96  0.4+  0.1+    151108 291  0.1+  0.0
    151106 G96  0.0   0.5+    151107 G96  0.0   0.0     151108 291  0.0   0.0
    151106 G96  0.3+  0.1-    151107 H01  0.1-  0.2+    151108 G96  0.5+  0.1-
    151106 G96  1.3-  0.7-    151107 H01  0.1-  0.2+    151109 291  0.2+  0.3+
    151106 G96  0.7+  0.1-    151107 H01  0.0   0.2+    151109 291  0.1-  0.1+
    151106 G96  0.3+  0.3+    151107 H01  0.0   0.2+    151109 291  0.1+  0.2+
    151106 G96  0.1+  0.2+    151108 G96  0.1-  0.1-
    151107 G96  0.4+  0.0     151108 G96  0.0   0.0
    
    Ephemeris:
    2015 VS64                a,e,i = 1.66, 0.31, 4                   q = 1.1347
    Date    TT    R. A. (2000) Decl.     Delta      r     Elong.  Phase     V
    2015 10 10    22 52 57.0 +08 29 59   0.1958  1.1703   148.6    26.4    20.8
    ...
    2015 10 25    23 03 05.6 +13 09 46   0.1928  1.1449   137.9    35.6    21.0
    ...
    2015 11 02    23 16 10.3 +15 41 11   0.1959  1.1375   134.1    38.8    21.1
    ...
    2015 11 08    23 29 21.9 +17 31 54   0.2003  1.1350   132.1    40.4    21.2
    2015 11 09    23 31 50.0 +17 49 56   0.2012  1.1348   131.8    40.6    21.2
    2015 11 10    23 34 22.6 +18 07 49   0.2022  1.1347   131.5    40.8    21.2
    ...
    2015 11 16    23 51 07.9 +19 51 30   0.2093  1.1356   130.2    41.7    21.3
    ...
    2015 11 24    00 16 55.7 +21 57 07   0.2222  1.1408   129.2    42.2    21.5
    ...
    2015 12 09    01 11 56.0 +24 56 55   0.2587  1.1625   128.0    41.9    21.8
    
    A. U. Tomatic                (C) Copyright 2015 MPC           M.P.E.C. 2015-V96
    

    Read MPEC 2015-V95 Read MPEC 2015-V97


    MPEC number:

    Enter an MPEC number in one of the following forms:

    • 1997-B01 (the full form)
    • J97B01 (the packed version of the full form)
    • B01 (the abbreviated form)